AirNav   Air Wisconsin pilot careers
 
 967 users online  

IL44 Arrow Heliport
Fox Lake, Illinois, USA

GOING TO FOX LAKE?


FAA INFORMATION EFFECTIVE 29 MARCH 2018

Location

FAA Identifier: IL44
Lat/Long: 42-24-12.0740N / 088-11-15.3080W
42-24.201233N / 088-11.255133W
42.4033539 / -88.1875856
(estimated)
Elevation: 738 ft. / 225 m (estimated)
Variation: 01W (1985)
Time zone: UTC -5 (UTC -6 during Standard Time)
Zip code: 60020

Heliport Operations

Heliport use: Private use. Permission required prior to landing
Activation date: 06/1988
Control tower: no
ARTCC: CHICAGO CENTER
FSS: KANKAKEE FLIGHT SERVICE STATION
Attendance: UNATNDD
Wind indicator: yes
Segmented circle: no

Heliport Communications

WX ASOS at UGN (14 nm E): PHONE 847-782-0876
WX ASOS at ENW (16 nm NE): PHONE 262-652-7730
WX AWOS-3 at BUU (18 nm N): 114.5 (262-757-0907)

Nearby radio navigation aids

VOR radial/distance  VOR name  Freq  Var
OBKr318/15.1NORTHBROOK VOR/DME113.0002W
BUUr165/17.9BURBUN VOR/DME114.5001W
ORDr331/27.9CHICAGO O'HARE VOR/DME113.9002E
DPAr011/31.6DUPAGE VOR/DME108.4002E

 
NDB name  Hdg/Dist  Freq  Var  ID
CODEE219/11.838902WEN . -.
LAKE LAWN137/25.240402WLVV .-.. ...- ...-

Heliport Services

Runway Information

Helipad H1

Dimensions: 60 x 60 ft. / 18 x 18 m
Surface: asphalt
Traffic pattern: leftleft

Heliport Ownership and Management from official FAA records

Ownership: Privately-owned
Owner: TRINSKI & SON
100 N ROUTE 12
FOX LAKE, IL 60020
Phone (847) 366-6453
Manager: MIKE TRINSKI
100 N ROUTE 12
FOX LAKE, IL 60020
Phone (847) 366-6453

Heliport Operational Statistics

Aircraft based on the field: 2
Single engine airplanes: 1
Helicopters: 1
    

Instrument Procedures

There are no published instrument procedures at IL44.

Some nearby airports with instrument procedures:

C81 - Campbell Airport (7 nm SE)
10C - Galt Field Airport (8 nm W)
3CK - Lake in the Hills Airport (13 nm SW)
KUGN - Waukegan National Airport (14 nm E)
C02 - Grand Geneva Resort Airport (16 nm NW)
KENW - Kenosha Regional Airport (16 nm NE)
KBUU - Burlington Municipal Airport (18 nm N)
 
Loc | Ops | Rwys | IFR | FBO | Links
Com | Nav | Svcs | Stats | Notes

AirNav Hotels Sweepstakes
 
Area around IL44 (Arrow Heliport)
 
Road maps at: MapQuest Bing Google
 
Aerial photo
No photo
 
Sectional chart

 
Airport distance calculator
Flying to Arrow Heliport? Find the distance to fly.

From to IL44

Sunrise and sunset
Times for 22-Apr-2018
 Local
(UTC-5)
 Zulu
(UTC)
Morning civil twilight05:3210:32
Sunrise06:0211:02
Sunset19:4100:41
Evening civil twilight20:1101:11

Current date and time
Zulu (UTC)  23-Apr-2018 01:52:50
Local (UTC-5)  22-Apr-2018 20:52:50
 
METAR
KUGN 
14nm E 
230055Z AUTO 03012KT 10SM CLR 07/M02 A3027 RMK AO2 SLP256 T00671022
KENW 
16nm NE 
230053Z 04008KT 10SM CLR 08/M03 A3028 RMK AO2 SLP257 T00781028
KBUU 
18nm N 
230135Z AUTO 07003KT 10SM CLR 10/M03 A3028 RMK AO2 T01001032
KPWK 
21nm SE 
230052Z 04010KT 10SM CLR 10/M05 A3028 RMK AO2 SLP258 T01001050
K06C 
25nm S 
230135Z AUTO 08005KT 10SM CLR 10/M04 A3027 RMK AO2 T00951044
KRAC 
27nm NE 
230053Z AUTO 04007KT 10SM CLR 05/M02 A3030 RMK AO2 SLP266 T00501022
KORD 
28nm SE 
230051Z 04010KT 10SM FEW200 BKN250 11/M03 A3026 RMK AO2 SLP249 T01061033
TAF
KENW 
16nm NE 
221720Z 2218/2318 09008KT P6SM FEW250 FM230000 05008KT P6SM FEW250
NOTAMs
Click for the latest NOTAMs
NOTAMs are issued by the DoD/FAA and will open in a separate window not controlled by AirNav.

 

 
 

Would you like to see your business listed on this page?

 If your business provides an interesting product or service to pilots, flight crews, aircraft, or users of the Arrow Heliport, you should consider listing it here.  To start the listing process, click on the button below
 
Add a business
 

Other Pages about Arrow Heliport

Update a link
 
Copyright © AirNav, LLC. All rights reserved. Privacy Policy  Contact